Regional Weather Roundup
Issued by NWS

Home | Current Version | Previous Version | Graphics & Text | Print | Product List | Glossary Off
Versions: 1 2 3 4 5 6 7 8 9 10 11 12 13 14 15 16 17 18 19 20 21 22 23 24 25 26 27 28 29 30 31 32 33 34 35 36 37 38 39 40 41 42 43 44 45 46 47 48 49 50

000
ASUS43 KMKX 021921
RWRWI

WISCONSIN REGIONAL WEATHER ROUNDUP
NATIONAL WEATHER SERVICE MILWAUKEE/SULLIVAN WI
200 PM CDT SUN AUG 02 2015

NOTE: "FAIR" INDICATES FEW OR NO CLOUDS BELOW 12,000 FEET WITH NO
SIGNIFICANT WEATHER AND/OR OBSTRUCTIONS TO VISIBILITY.

WIZ001-002-006>008-014>016-023>028-022000-
NORTHWEST WISCONSIN

CITY           SKY/WX    TMP DP  RH WIND       PRES   REMARKS
SUPERIOR ARPT  PTSUNNY   75  62  62 NW12      29.67R
ASHLAND        PTSUNNY   77  62  59 NW9G16    29.64R
HAYWARD        PTSUNNY   75  60  59 MISG      29.66S
SIREN          PTSUNNY   77  60  55 N10       29.69R
CUMBERLAND     PTSUNNY   73  59  60 N14       29.68R
RICE LAKE      CLOUDY    76  67  71 NW8       29.67R
CHETEK         PTSUNNY   78  69  73 NW8       29.65R HX  80
LADYSMITH      CLOUDY    74  68  79 NW6       29.66S
EAU CLAIRE     PTSUNNY   84  68  58 NW16G23   29.63R HX  87
MENOMONIE      PTSUNNY   80  65  60 W18       29.65R HX  82
NEW RICHMOND   PTSUNNY   77  65  67 NW10G20   29.68R
OSCEOLA        MOSUNNY   80  59  48 NW8G17    29.71R HX  81
$$

WIZ003>005-009-010-017-018-022000-
NORTH CENTRAL WISCONSIN

CITY           SKY/WX    TMP DP  RH WIND       PRES   REMARKS
MANITOWISH WTR MOSUNNY   74  60  60 NW9       29.65S
ARBOR VITAE    MOSUNNY   74  65  72 N7        29.64F
WOODRUFF       MOSUNNY   74  65  72 N7        29.64F
RHINELANDER    CLOUDY    66  61  84 CALM      29.65R
EAGLE RIVER    PTSUNNY   69  57  66 CALM      29.64F
LAND O LAKES   CLOUDY    72  61  68 SW3       29.65S
PHILLIPS       PTSUNNY   73  65  74 NW5       29.64S
TOMAHAWK       CLOUDY    70  60  70 N3        29.65R
MEDFORD        CLOUDY    77  68  73 W9G17     29.63R
MERRILL        NOT AVBL
$$

WIZ029-030-035-036-043>047-022000-
CENTRAL WISCONSIN

CITY           SKY/WX    TMP DP  RH WIND       PRES   REMARKS
WAUSAU         PTSUNNY   82  67  60 VRB7      29.57F HX  84
MOSINEE        PTSUNNY   84  68  58 W13G20    29.59F HX  87
MARSHFIELD     CLOUDY    86  66  51 W18G25    29.60R HX  88
STEVENS POINT  PTSUNNY   88  65  47 W12G24    29.57F HX  89
WAUPACA        MOSUNNY   94  62  33 SW24G33   29.56R HX  94
WAUTOMA        MOSUNNY   94  67  41 SW18G30   29.58F HX  97
WISC RAPIDS    PTSUNNY   92  64  39 SW21G30   29.58F HX  93
CAMP DOUGLAS   PTSUNNY   90  70  51 SW20G31   29.60F HX  95
$$

WIZ011>013-019>022-031-037>040-048>050-022000-
NORTHEAST WISCONSIN

CITY           SKY/WX    TMP DP  RH WIND       PRES   REMARKS
ANTIGO         CLOUDY    76  66  72 N6        29.61F
SHAWANO        PTSUNNY   86  67  52 W10       29.54F HX  89
OCONTO         CLOUDY    76  71  82 NE10      29.53F
STURGEON BAY   CLOUDY    72  64  78 N22G28    29.62R THUNDER
GREEN BAY      MOSUNNY   89  69  51 SW15G25   29.52F HX  93
MANITOWOC      MOSUNNY   90  68  48 MISG      29.55F HX  94
APPLETON       PTSUNNY   90  64  43 SW25G33   29.56F HX  91
CLINTONVILLE   PTSUNNY   90  63  40 W17G24    29.53F HX  90
OSHKOSH        SUNNY     89  69  51 SW22G32   29.56F HX  93
$$

WIZ032>034-041-042-053>061-022000-
SOUTHWEST WISCONSIN

CITY           SKY/WX    TMP DP  RH WIND       PRES   REMARKS
LA CROSSE      SUNNY     92  69  47 SW17G29   29.59F HX  97
SPARTA         MOSUNNY   91  65  41 SW12G18   29.60F HX  92
VIROQUA        SUNNY     87  70  56 SW16G25   29.66F HX  92
BOSCOBEL       SUNNY     92  69  47 SW21      29.66F HX  97
PRAIRIE DU CHI SUNNY     90  66  45 S13G21    29.67F HX  92
PLATTEVILLE    SUNNY     87  70  56 SW21      29.71F HX  92
$$

WIZ056-057-062-063-064-067-068-022000-
SOUTH CENTRAL WISCONSIN

CITY           SKY/WX    TMP DP  RH WIND       PRES   REMARKS
REEDSBURG      SUNNY     89  69  51 SW18G30   29.64S HX  93
BARABOO/DELLS  SUNNY     90  65  43 SW16G22   29.64S HX  91
LONE ROCK      SUNNY     90  67  46 SW17G26   29.65F HX  93
MINERAL POINT  SUNNY     88  66  48 SW16G24   29.71F HX  90
MADISON        MOSUNNY   88  68  51 SW12G21   29.66F HX  91
MIDDLETON      SUNNY     90  65  43 SW16G23   29.68F HX  92
WATERTOWN      SUNNY     86  71  59 SW17G26   29.66F HX  91
MONROE         SUNNY     88  68  51 SW24G30   29.73F HX  91
JANESVILLE     SUNNY     91  64  40 SW23G29   29.70F HX  93
$$

WIZ051-052-058>065-066-070>072-022000-
SOUTHEAST WISCONSIN

CITY           SKY/WX    TMP DP  RH WIND       PRES   REMARKS
MILWAUKEE      MOSUNNY   92  66  42 SW23G36   29.67F HX  94
WAUKESHA       SUNNY     88  66  48 SW14G29   29.69F HX  90
MILWAUKEE/TIMM SUNNY     90  63  40 SW16G29   29.67F HX  90
RACINE         SUNNY     91  66  43 SW23G35   29.68F HX  93
BURLINGTON     SUNNY     88  66  48 SW20G26   29.69F HX  90
KENOSHA        SUNNY     91  68  46 SW18G30   29.70F HX  95
FOND DU LAC    SUNNY     88  71  57 SW17G28   29.60F HX  94
SHEBOYGAN      SUNNY     90  70  51 SW24G31   29.59F HX  95
WEST BEND      SUNNY     90  66  45 SW20      29.63F HX  92
JUNEAU         SUNNY     86  71  61 SW21      29.66F HX  91
$$

LSZ147-162-022000-
LAKE SUPERIOR

STATION/POSITION TIME  TEMP    WIND        PRES    WAVE
                       AIR SEA DIR/SP/G            HT/PER
                 (UTC) (F)     (DEG/KT/KT) (MB)    (FT/S)
W MID LAKE BUOY  1850   59 55  280/ 10/ 10 1002.3R   1
DEVILS ISLAND    1900   65     240/ 14/ 16 1003.4R
PORT WING        1800   69     260/ 11/ 15 1004.1
SAXON HARBOR     1800   68                 1003.0S
$$

LMZ867-665-643>646-022000-
LAKE MICHIGAN

STATION/POSITION TIME  TEMP    WIND        PRES    WAVE
                       AIR SEA DIR/SP/G            HT/PER
                 (UTC) (F)     (DEG/KT/KT) (MB)    (FT/S)
CHAMBERS ISLAND  1800   72      70/  4/  6 1002.0F
N MID LAKE BUOY  1850   69 69  170/ 16/ 17 1000.9F   2/ 5
NORTHPORT PIER   1900   69     180/  4/ 21 1002.7R
SISTER BAY       1815   75     150/  7/ 10   N/A
ALGOMA LAKESHORE 1712          220/ 13/ 16   N/A
KEWAUNEE LAKESHO 1900   63     180/ 14/ 16 1000.2F
SHEBOYGAN LAKESH 1900   88     240/ 25/ 29 1001.4F
PORT WASHINGTON  1800   90     220/ 11/ 23 1004.7F
ATWATER BUOY     1900   81 53  210/ 17/ 23 1005.2F
MILWAUKEE LAKESH 1900   87     240/ 23/ 32   N/A
KENOSHA   LAKESH 1900   89     240/ 18/ 28 1005.1F
$$

TC  - TEMPERATURE IN CELSIUS
VSB - VISIBILITY IN STATUTE MILES
WCI - WIND CHILL INDEX
HX  - HEAT INDEX




USA.gov is the U.S. government's official web portal to all federal, state and local government web resources and services.